Flag for Canada Weather past 2 weeks in Rothesay, New Brunswick, Canada

Now
-15 °F

Sunny.


Feels Like: -25 °F
Forecast: -4 / 22 °F
Wind: 3 mph from North

Location: Saint John

Current Time: Feb 28, 2015 at 9:10:34 AM

Latest Report: Feb 28, 2015 at 8:00 AM


Visibility: 15 mi

Pressure: 30.59 "Hg

Humidity: 76%

Dew point: -20 °F

Location of RothesayLocation

Historic Weather in Rothesay — Graph

°F

Rothesay temperature yesterday

Maximum temperature yesterday: 18 °F (at 4:00 PM)
Minimum temperature yesterday: -9 °F (at 11:00 PM)
Average temperature yesterday: 6 °F

Past Weeks' High & Low Weather Summary

 TemperatureHumidityPressure
High36 °F (Feb 22, 4:54 AM)100% (Feb 22, 12:00 AM)30.59 "Hg (Feb 22, 12:00 AM)
Low-15 °F (Feb 28, 7:00 AM)35% (Feb 21, 1:00 PM)29.09 "Hg (Feb 15, 6:00 PM)
Average11 °F70%29.87 "Hg
* Reported Feb 13 8:00 AM — Feb 28 8:00 AM, Rothesay, Weather by CustomWeather, © 2015

Note: Actual official high and low records may vary slightly from our data, if they occured in-between our weather recording intervals... More about our weather records

Advertising

Rothesay weather history for previous 24 hours

 ConditionsComfort  
Time TempWeatherWind HumidityBarometerVisibility
8:00 AM
Sat, Feb 28
-15 °FSunny.3 mph76%30.59 "Hg15 mi
7:00 AM-15 °FClear.2 mph69%30.56 "Hg15 mi
6:00 AM-13 °FClear.No wind76%30.54 "Hg15 mi
5:00 AM-9 °FClear.No wind70%30.53 "Hg15 mi
4:00 AM-11 °FClear.6 mph76%30.49 "Hg15 mi
3:00 AM0 °FClear.No wind78%30.47 "Hg15 mi
2:00 AM-4 °FFog.No wind77%30.46 "Hg15 mi
1:00 AM-4 °FFog.8 mph77%30.43 "Hg15 mi
12:00 AM-9 °FClear.No wind70%30.42 "Hg15 mi
11:00 PM
Fri, Feb 27
-9 °FClear.2 mph77%30.40 "Hg15 mi
10:00 PM-8 °FClear.No wind77%30.38 "Hg15 mi
9:00 PM-6 °FClear.2 mph77%30.36 "Hg15 mi
8:00 PM-2 °FClear.No wind77%30.33 "Hg15 mi
7:00 PM10 °FClear.7 mph56%30.31 "Hg15 mi
6:00 PM14 °FPassing clouds.5 mph48%30.28 "Hg15 mi
5:00 PM16 °FPassing clouds.9 mph48%30.26 "Hg15 mi
4:00 PM18 °FPassing clouds.7 mph41%30.25 "Hg15 mi
3:00 PM16 °FPassing clouds.9 mph41%30.23 "Hg15 mi
2:00 PM16 °FPassing clouds.6 mph41%30.23 "Hg15 mi
1:00 PM12 °FPassing clouds.10 mph44%30.24 "Hg15 mi
12:00 PM10 °FPassing clouds.9 mph47%30.25 "Hg15 mi
11:00 AM7 °FScattered clouds.13 mph51%30.26 "Hg15 mi
10:00 AM7 °FScattered clouds.12 mph47%30.24 "Hg15 mi
9:00 AM3 °FPassing clouds.9 mph55%30.24 "Hg15 mi
Weather by CustomWeather, © 2015

See weather overviewHow to use our weather pages